Lid_Strength_Index
12 13 13 13 14 14 15 15 15 16 16 16 16 17 17 17 17 18 18 19 19 18 17 17 17 17 18 18 17 17 17 17 19 18 18 17 17 17 16 16 15 16 15
13 13 14 14 14 15 15 15 15 16 16 16 16 17 17 17 18 18 19 19 19 18 17 17 17 16 18 17 17 17 17 18 19 20 18 18 18 17 17 17 16 15 15
13 14 14 14 14 15 15 15 15 16 16 16 17 17 18 18 19 19 19 18 18 18 17 17 17 17 17 17 17 17 18 17 18 19 19 18 18 17 17 17 17 17 15
13 14 14 14 15 15 15 16 16 16 17 17 17 18 18 19 19 19 18 18 18 17 17 17 17 17 16 17 17 18 17 18 18 19 19 18 17 17 17 18 19 17 18
14 14 15 15 15 16 16 17 17 17 17 18 19 19 19 18 18 18 17 17 18 18 17 16 15 16 14 15 16 17 17 18 18 19 18 18 18 18 19 18 19 19 19
14 15 15 15 16 16 17 17 17 18 18 19 19 19 19 18 16 14 15 17 16 16 17 16 16 16 16 14 14 13 14 18 18 18 18 18 18 18 18 20 21 22 24
15 16 16 16 17 17 17 18 18 19 19 19 18 19 19 18 14 13 12 15 16 16 15 15 16 16 17 17 16 14 14 14 14 15 17 18 19 18 19 21 21 22 23
16 17 17 17 17 18 18 18 18 18 19 19 18 18 18 17 13 13 12 14 14 15 15 16 17 17 17 17 17 17 17 17 16 16 16 17 17 18 19 20 21 23 22
17 17 17 17 18 18 18 18 19 19 18 18 17 17 17 17 13 12 12 14 14 15 15 16 16 17 16 15 17 17 17 17 14 15 16 16 17 17 18 21 25 25 26
17 17 17 17 17 17 18 19 18 17 16 17 16 17 17 16 13 12 11 14 15 15 16 16 15 17 15 14 16 17 18 18 19 19 20 21 21 21 19 21 22 26 25
16 17 17 17 17 17 17 18 18 18 17 19 18 17 16 16 15 12 11 13 15 16 16 17 16 14 14 14 13 17 17 19 21 24 24 24 23 22 22 21 21 21 24
17 18 18 17 16 17 17 19 20 19 20 20 21 19 18 16 15 13 12 11 12 15 16 17 17 14 14 14 16 15 17 21 24 26 27 26 24 24 23 22 21 21 20
17 18 18 18 17 17 18 20 20 21 20 20 19 19 18 17 17 14 12 12 12 13 15 15 14 14 14 16 16 17 22 24 25 29 28 25 24 24 24 24 23 22 21
17 17 18 18 19 20 19 18 20 20 20 19 19 18 18 20 20 19 18 19 16 15 14 16 15 16 17 20 21 22 23 24 25 26 26 26 26 27 27 25 28 25 27
17 18 18 19 19 19 19 18 18 18 17 19 19 19 20 20 19 17 18 20 22 19 25 21 22 25 25 25 26 27 27 26 27 27 30 30 28 28 27 26 27 31 32
19 19 18 18 19 19 19 20 15 14 14 13 13 16 18 15 14 13 13 13 13 14 23 24 24 24 23 24 24 27 28 27 27 30 32 32 31 30 29 28 28 33 30
17 18 20 20 20 21 23 21 20 20 13 13 12 12 12 12 12 12 11 11 12 13 18 21 21 22 22 22 23 26 27 27 29 32 32 32 31 31 33 31 29 29 28
21 21 20 20 20 21 22 23 24 24 23 22 16 13 12 12 11 11 10 11 13 16 20 21 20 21 22 23 25 28 30 31 31 32 34 36 38 37 37 33 31 32 29
21 22 22 23 24 23 24 25 24 24 22 20 23 19 19 14 13 12 11 13 14 18 20 22 22 23 24 26 28 30 30 31 32 37 39 39 39 40 36 35 32 30 29
25 23 24 25 27 27 26 25 26 24 22 21 22 21 22 22 20 20 21 22 20 19 22 22 24 28 27 27 30 33 35 38 38 40 39 39 38 40 36 34 32 30 27
23 26 25 27 25 25 25 24 23 23 22 21 19 20 17 19 18 20 19 21 21 22 24 24 27 27 28 29 30 31 31 32 36 35 39 38 40 40 37 34 31 30 27
24 24 26 23 26 27 25 25 25 24 22 21 21 23 15 18 20 19 20 21 22 24 25 25 26 27 28 28 29 30 30 31 32 34 36 37 40 38 37 35 31 28 24
25 26 28 29 27 26 27 26 24 23 21 21 21 21 23 21 20 19 19 21 25 26 27 26 25 27 28 28 28 28 29 29 29 32 35 37 39 36 36 32 28 25 23
27 26 25 25 26 26 24 24 24 23 22 21 22 21 21 21 21 20 20 24 26 26 26 26 26 26 28 29 29 30 29 29 31 32 35 38 36 36 34 30 26 23 22
26 25 25 25 26 25 27 25 23 22 20 20 20 20 21 20 21 21 25 26 25 25 26 26 27 26 27 27 28 29 29 26 27 31 36 39 36 35 31 28 25 23 21
28 28 28 28 27 26 24 26 23 24 22 22 22 22 21 20 21 24 26 26 25 25 26 26 26 27 27 27 27 26 26 24 26 27 31 33 32 29 27 24 21 19 17